Location: American Medical Response
(33.3472°N, 96.5511°W)
Time: 21:43:29
(UTC+00:00)

SL-4 R/B - Pass Details

Date: 10 July 2022
Orbit: 425 x 653 km, 51.6° (Epoch: 11 August)

Event Time Altitude Azimuth Distance (km) Brightness Sun altitude
Rises 02:18:29 0° 194° (SSW) 2,382 5.1 -8.0°
Reaches altitude 10° 02:21:00 10° 175° (S) 1,507 3.9 -8.5°
Maximum altitude 02:23:26 19° 128° (SE) 1,084 2.9 -8.9°
Drops below altitude 10° 02:25:53 10° 81° (E) 1,513 3.8 -9.3°
Sets 02:28:25 0° 63° (ENE) 2,395 5.0 -9.7°
